Meath Environmental Platform

Observations for Trim Market St

Time AQI Temp °C Hum % Pres Pa CO μg/m³ H₂S μg/m³ NO μg/m³ NO₂ μg/m³ O₃ μg/m³ SO₂ μg/m³ PM1 μg/m³ PM2.5 μg/m³ PM10 μg/m³
Tuesday 25 August 2026
21:10 3 17 80 2,147,483,647 0.33 0 1.22 29.09 32.29 0 6.41 8.7 16.02
21:05 3 17.1 80 2,147,483,647 0.24 0 1.78 30.11 40.61 0 3.56 4.95 9.81
21:01 3 17.1 80 2,147,483,647 0.32 0 27.62 58.64 1.4 0 6.41 7.33 12.09
21:00 3 17.1 79 2,147,483,647 0.32 0 27.58 50.81 13.01 0 4.28 5.45 8.67
20:59 3 17.1 79 2,147,483,647 0.5 0 15.18 72.52 0 0 6.41 7.34 10.96
20:58 3 17.1 79 2,147,483,647 0.82 2.66 7.52 51.87 15.9 0 7.84 9.24 13.82
20:57 3 17.1 79 2,147,483,647 2.59 4.49 1.97 52.59 15.88 0 7.13 9.24 14.4
20:54 3 17.1 79 2,147,483,647 0.27 0 1.55 33.69 39.96 0 7.13 8.79 14.42
20:53 3 17.2 79 2,147,483,647 0.25 0 1.6 27.21 44.3 0 6.41 7.37 10.97
20:49 3 17.2 78 2,147,483,647 0.24 0 1.29 28.87 42.64 0 5.7 7.39 11.57
20:48 3 17.2 78 2,147,483,647 0.24 0 1.62 22.03 53.62 0 6.41 7.87 12.15
20:46 3 17.2 78 2,147,483,647 0.25 0 1.55 27.33 44.64 0 6.41 7.41 11
20:45 3 17.2 78 2,147,483,647 0.25 0 1.47 34.63 44.7 0 7.13 7.41 11.58
20:44 3 17.2 78 2,147,483,647 0.24 0 1.12 39.25 37.98 0 7.13 10.26 15.63
20:43 3 17.2 78 2,147,483,647 0.24 0 1.12 30.39 40.09 0 6.41 8.37 13.9
20:35 3 17.3 77 2,147,483,647 0.23 0 1.16 30.9 44.8 0 5.7 6.52 9.86
20:31 3 17.3 77 2,147,483,647 0.22 0 1.23 29.17 49.1 0 6.41 6.53 10.46
20:30 3 17.4 77 2,147,483,647 0.21 0 1.3 42.58 31.88 0 4.28 6.54 11.05
20:29 3 17.4 77 2,147,483,647 0.21 0 1.2 25.94 51.43 0 6.41 8.93 12.81
20:28 3 17.4 77 2,147,483,647 0.21 0 1.19 29.03 48.55 0 6.41 7.5 11.05